Regional Weather Roundup
Issued by NWS Northern Indiana

Home | Current Version | Previous Version | Graphics & Text | Print | Product List | Glossary On
Versions: 1 2 3 4 5 6 7 8 9 10 11 12 13 14 15 16 17 18 19 20 21 22 23 24 25 26 27 28 29 30 31 32 33 34 35 36 37 38 39 40 41 42 43 44 45 46 47 48 49 50
000
ASUS43 KIWX 212201
RWRIWX

KIWX WEATHER ROUNDUP
NATIONAL WEATHER SERVICE NORTHERN INDIANA
600 PM EDT THU SEP 21 2017

NOTE: "FAIR" INDICATES FEW OR NO CLOUDS BELOW 12,000 FEET WITH NO
SIGNIFICANT WEATHER AND/OR OBSTRUCTIONS TO VISIBILITY.

* THESE STATIONS ARE NOT UNDER NWS QUALITY CONTROL. THEY ALSO MAY NOT
  REPORT WEATHER SUCH AS PRECIPITATION OR FOG.

INZ001>027-212300-
NORTHERN INDIANA

CITY           SKY/WX    TMP DP  RH WIND       PRES   REMARKS
MICHIGAN CITY* SUNNY     84  73  70 N3        30.00F
KNOX*          MOSUNNY   90  70  51 S6        30.00S HX  95
SOUTH BEND     SUNNY     89  71  55 SW7       30.02S HX  95
ELKHART*       MOSUNNY   90  72  55 SW6       30.01S HX  96
GOSHEN         SUNNY     89  68  49 S8        30.02S
MONTICELLO*    SUNNY     90  68  49 CALM      30.00F
WARSAW*        SUNNY     88  70  55 CALM      30.02F
AUBURN*        SUNNY     88  68  51 CALM      30.04S
FORT WAYNE     MOSUNNY   87  70  56 SW3       30.03S
PERU/GRISSOM   SUNNY     90  69  50 SW5       30.01F

$$
INZ028>050-212300-
CENTRAL INDIANA

CITY           SKY/WX    TMP DP  RH WIND       PRES   REMARKS
LAFAYETTE      MOSUNNY   90  69  50 SW5       29.99F
KOKOMO*        SUNNY     88  72  58 S7        30.03F
MUNCIE*        SUNNY     91  66  43 VRB5      30.03F
INDIANAPOLIS   MOSUNNY   89  67  47 SW7       30.02F

$$
MIZ043>046-050>051-056>058-064>065-071>073-077>080-212300-
SOUTHWEST LOWER MICHIGAN

CITY           SKY/WX    TMP DP  RH WIND       PRES   REMARKS
BATTLE CREEK   RAIN      73  67  81 E7        30.06S
BENTON HARBOR  SUNNY     84  70  62 N3        30.01R
COLDWATER*     CLOUDY    88  65  47 S3        30.03S
HILLSDALE*     SUNNY     82  70  65 CALM      30.05S
HOLLAND        SUNNY     87  71  58 VRB5      30.01S
GRAND RAPIDS   CLOUDY    92  68  45 NW7       30.00S HX  96
KALAMAZOO      LGT RAIN  82  65  56 N14       30.04R
STURGIS*       SUNNY     89  71  55 SW8       30.02S HX  95
THREE RIVERS*  FAIR      91  68  46 SW5       30.02S HX  95

$$
OHZ001>008-015>018-024>025-212300-
NORTHWEST OHIO

CITY           SKY/WX    TMP DP  RH WIND       PRES   REMARKS
DEFIANCE       SUNNY     89  67  47 SW5       30.02F
FINDLAY        SUNNY     90  67  46 E5        30.02F
TOLEDO EXPRESS SUNNY     91  70  49 SW5       30.02S HX  96
TOLEDO METCALF SUNNY     87  73  62 E7        30.03S
LIMA           SUNNY     89  66  46 CALM      30.04S

$$
AND FOR LAKE MICHIGAN COASTAL AND OPEN LAKE BUOY OBSERVATIONS

STATION/POSITION TEMP    WIND        PRES    VSBY  WAVE
                 AIR SEA DIR/SP/G                  HT/PER
                 (F)     (DEG/KT/KT) (MB)    (MI)  (FT/S)
CALUMET HARBOR    79      70/  7/  9 1014.7
MICHIGAN CITY     74      50/ 12/ 12   N/A
BURNS HARBOR      77      80/ 12/ 14 1015.9F
SAINT JOSEPH      79      10/  3/  4 1017.3
SOUTH LAKE BUOY   72 71  140/  6/  6 1015.9          0
4 MI NW BRIDGMAN  75 73   70/  6/  6 1015.7F         0
MICHIGAN CITY     74 71   90/  8/ 10   N/A           1

$$
&&




USA.gov is the U.S. government's official web portal to all federal, state and local government web resources and services.